Location: Asheville, NC
(35.6000°N, 82.5500°W)
Time: 03:20:06
(UTC-04:00)

STRAND 1 - Pass Details

Date: 18 March 2018
Orbit: 769 x 781 km, 98.5° (Epoch: 17 June)

Event Time Altitude Azimuth Distance (km) Brightness Sun altitude
Rises 21:08:27 0° 11° (N) 3,257 ? -18.6°
Reaches altitude 10° 21:10:46 10° 11° (N) 2,324 ? -19.0°
Maximum altitude 21:15:53 81° 285° (WNW) 785 ? -20.1°
Drops below altitude 10° 21:20:58 10° 198° (SSW) 2,302 ? -21.0°
Sets 21:23:15 0° 197° (SSW) 3,224 ? -21.5°
